This demonstration page uses our WeatherBlox Daily Observations layout. Learn more.

Left ArrowRight Arrow

39.92423, -83.80882

Hourly Observations for November 30, 2018

Temp ( °F °C ) Dew Point ( °F °C ) Humidity (%) Winds ( mph kmh ) Pressure ( in mb ) Visibility ( mi km ) Precip ( " mm )
12:14 am 00:14 Cloudy with Light Rain 34 1 34 1 100 100 SE 3 6 29.97 1015 0.75 1.207005 N/A
12:56 am 00:56 Cloudy with Light Wintry Mix 34 1.1 34 1.1 100 100 VRB 3 6 29.94 1014 0.75 1.207005 N/A
1:06 am 01:06 Cloudy with Fog 36 2 36 2 100 100 N N/A 29.97 1015 0.5 0.80467 N/A
1:56 am 01:56 Cloudy with Fog 34 1.1 34 1.1 100 100 NE 7 11 29.91 1013 0.5 0.80467 N/A
2:43 am 02:43 Cloudy with Mist and Fog 36 2 36 2 100 100 S 7 11 29.91 1013 1 1.60934 N/A
2:52 am 02:52 Cloudy with Mist and Fog 36 2 36 2 100 100 S 5 7 29.97 1015 1.5 2.41401 N/A
2:56 am 02:56 Cloudy with Mist and Fog 35 1.7 35 1.7 100 100 S 3 6 29.93 1014 2 3.21868 N/A
3:11 am 03:11 Cloudy with Mist and Fog 36 2 36 2 100 100 N N/A 29.97 1015 3 4.82802 N/A
3:36 am 03:36 Cloudy with Mist and Fog 36 2 36 2 100 100 N N/A 29.97 1015 1.75 2.816345 N/A
3:43 am 03:43 Cloudy with Mist and Fog 36 2 36 2 100 100 ESE 5 7 29.97 1015 0.75 1.207005 N/A
3:52 am 03:52 Cloudy with Fog 34 1 34 1 100 100 ESE 3 6 29.97 1015 0.5 0.80467 N/A
3:56 am 03:56 Cloudy with Fog 34 1.1 34 1.1 100 100 SE 3 6 29.93 1014 0.25 0.402335 N/A
4:18 am 04:18 Cloudy with Fog 34 1 34 1 100 100 ESE 5 7 29.94 1014 0.25 0.402335 N/A
4:56 am 04:56 Cloudy with Fog 34 1.1 34 1.1 100 100 E 5 7 29.93 1013 0.25 0.402335 N/A
5:56 am 05:56 Cloudy with Fog 34 1.1 34 1.1 100 100 E 5 7 29.94 1014 0.25 0.402335 N/A
6:56 am 06:56 Cloudy with Fog 34 1.1 34 1.1 100 100 N N/A 29.96 1015 0.25 0.402335 N/A
7:56 am 07:56 Cloudy with Fog 34 1.1 34 1.1 100 100 N N/A 29.98 1015 5 8.0467 N/A
8:56 am 08:56 Cloudy with Fog 35 1.7 35 1.7 100 100 SE 5 7 29.98 1015 5 8.0467 N/A
9:56 am 09:56 Cloudy with Fog 37 2.8 37 2.8 100 100 N N/A 30.02 1017 5 8.0467 N/A
10:56 am 10:56 Cloudy with Fog 40 4.4 40 4.4 100 100 N N/A 30.03 1017 0.25 0.402335 N/A
11:15 am 11:15 Cloudy with Mist and Fog 39 4 39 4 100 100 N N/A 30.03 1017 0.75 1.207005 N/A
11:33 am 11:33 Cloudy with Mist and Fog 39 4 39 4 100 100 N N/A 30.03 1017 1.25 2.011675 N/A
11:43 am 11:43 Cloudy with Mist and Fog 39 4 39 4 100 100 N N/A 30.03 1017 0.75 1.207005 N/A
11:56 am 11:56 Cloudy with Mist and Fog 41 5 41 5 100 100 N N/A 30.02 1017 0.75 1.207005 N/A
12:04 pm 12:04 Cloudy with Mist and Fog 41 5 41 5 100 100 N N/A 30.03 1017 1 1.60934 N/A
12:11 pm 12:11 Cloudy with Mist and Fog 41 5 41 5 100 100 N 3 6 30.03 1017 1.25 2.011675 N/A
12:17 pm 12:17 Cloudy with Mist and Fog 41 5 41 5 100 100 N 5 7 30.03 1017 0.75 1.207005 N/A
12:26 pm 12:26 Cloudy with Fog 41 5 41 5 100 100 N N/A 30.03 1017 0.5 0.80467 N/A
12:53 pm 12:53 Cloudy with Mist and Fog 41 5 41 5 100 100 N 5 7 30.03 1017 0.75 1.207005 N/A
12:56 pm 12:56 Cloudy with Mist and Fog 41 5 41 5 100 100 N 5 7 30.02 1017 0.75 1.207005 N/A
1:02 pm 13:02 Cloudy with Mist and Fog 43 6 43 6 100 100 NNW 5 7 30.03 1017 1.25 2.011675 N/A
1:25 pm 13:25 Cloudy with Mist and Fog 43 6 43 6 100 100 NNW 3 6 30.03 1017 2.5 4.02335 N/A
1:32 pm 13:32 Cloudy with Mist and Fog 43 6 43 6 100 100 N 7 11 30.03 1017 3 4.82802 N/A
1:56 pm 13:56 Cloudy with Mist and Fog 42 5.6 42 5.6 100 100 NNW 3 6 30.02 1017 5 8.0467 N/A
2:03 pm 14:03 Cloudy with Mist and Fog 43 6 43 6 100 100 N 6 9 30.03 1017 5 8.0467 N/A
2:56 pm 14:56 Cloudy with Mist and Fog 42 5.6 42 5.6 100 100 N 5 7 30.03 1017 6 9.65604 N/A
4:56 pm 16:56 Cloudy with Mist and Fog 41 5 41 5 100 100 N 5 7 30.06 1018 5 8.0467 N/A
5:56 pm 17:56 Cloudy with Mist and Fog 40 4.4 40 4.4 100 100 N N/A 30.08 1019 5 8.0467 N/A
6:56 pm 18:56 Cloudy with Mist and Fog 40 4.4 40 4.4 100 100 N N/A 30.09 1019 5 8.0467 N/A
7:56 pm 19:56 Cloudy with Mist and Fog 40 4.4 40 4.4 100 100 E 8 13 30.09 1019 4 6.43736 N/A
8:06 pm 20:06 Cloudy with Mist and Fog 39 4 39 4 100 100 E 7 11 30.09 1019 3 4.82802 N/A
8:37 pm 20:37 Cloudy with Mist and Fog 39 4 39 4 100 100 E 8 13 30.09 1019 2.5 4.02335 N/A
8:56 pm 20:56 Cloudy with Mist and Fog 38 3.3 38 3.3 100 100 E 8 13 30.1 1019 2.5 4.02335 N/A
9:11 pm 21:11 Cloudy with Mist and Fog 39 4 39 4 100 100 E 9 15 30.09 1019 2 3.21868 N/A
9:31 pm 21:31 Cloudy with Mist and Fog 37 3 37 3 100 100 E 10 17 30.12 1020 1.5 2.41401 N/A
9:56 pm 21:56 Cloudy with Mist and Fog 38 3.3 38 3.3 100 100 E 10 17 30.09 1019 1.25 2.011675 N/A
10:09 pm 22:09 Cloudy with Mist and Fog 37 3 37 3 100 100 E 9 15 30.12 1020 1 1.60934 N/A
10:20 pm 22:20 Cloudy with Mist and Fog 37 3 37 3 100 100 E 8 13 30.12 1020 1.25 2.011675 N/A
11:07 pm 23:07 Cloudy with Mist and Fog 37 3 37 3 100 100 E 6 9 30.12 1020 1 1.60934 N/A
11:56 pm 23:56 Cloudy with Light Rain 38 3.3 38 3.3 100 100 E 8 13 30.07 1018 0.75 1.207005 N/A

Powered by AerisWeather